This demonstration page uses our WeatherBlox Daily Observations layout. Learn more.

Left ArrowRight Arrow

36.19886, -115.1175

Hourly Observations for April 10, 2021

Temp ( °F °C ) Dew Point ( °F °C ) Humidity (%) Winds ( mph kmh ) Pressure ( in mb ) Visibility ( mi km ) Precip ( " mm )
12:53 am 00:53 Clear 65 18.3 18 -7.8 16 16 W 5 7 29.83 1010 10 16 N/A
1:53 am 01:53 Clear 62 16.7 20 -6.7 20 20 WNW 3 6 29.83 1010 10 16 N/A
2:53 am 02:53 Clear 60 15.6 19 -7.2 20 20 NW 5 7 29.82 1010 10 16 N/A
3:53 am 03:53 Clear 59 15 18 -7.8 20 20 NNW 7 11 29.81 1009 10 16 N/A
4:53 am 04:53 Clear 60 15.6 18 -7.8 19 19 WSW 5 7 29.81 1009 10 16 N/A
5:53 am 05:53 Clear 59 15 19 -7.2 21 21 WSW 3 6 29.82 1010 10 16 N/A
6:53 am 06:53 Sunny 59 15 18 -7.8 20 20 NW 3 6 29.83 1010 10 16 N/A
7:53 am 07:53 Sunny 66 18.9 18 -7.8 16 16 N N/A 29.86 1011 10 16 N/A
8:53 am 08:53 Sunny 71 21.7 12 -11.1 10 10 NW 8 13 29.85 1011 10 16 N/A
9:53 am 09:53 Sunny 75 23.9 13 -10.6 9 9 ENE 5 7 29.85 1011 10 16 N/A
10:53 am 10:53 Sunny 77 25 14 -10 9 9 E 6 9 29.85 1011 10 16 N/A
11:53 am 11:53 Sunny 80 26.7 10 -12.2 7 7 VRB 5 7 29.83 1010 10 16 N/A
12:53 pm 12:53 Sunny 82 27.8 11 -11.7 7 7 VRB 3 6 29.80 1009 10 16 N/A
1:53 pm 13:53 Sunny 84 28.9 13 -10.6 7 7 VRB 6 9 29.78 1009 10 16 N/A
2:53 pm 14:53 Sunny 85 29.4 13 -10.6 7 7 N N/A 29.75 1008 10 16 N/A
3:53 pm 15:53 Sunny 87 30.6 13 -10.6 6 6 VRB 7 11 29.72 1006 10 16 N/A
4:53 pm 16:53 Sunny 88 31.1 13 -10.6 6 6 undefined N/A 29.69 1005 10 16 N/A
5:53 pm 17:53 Sunny 87 30.6 9 -12.8 5 5 S 6 9 29.68 1005 10 16 N/A
6:53 pm 18:53 Sunny 86 30 8 -13.3 5 5 VRB 5 7 29.68 1005 10 16 N/A
7:53 pm 19:53 Clear 82 27.8 2 -16.7 4 4 WNW 6 9 29.68 1005 10 16 N/A
8:53 pm 20:53 Clear 79 26.1 4 -15.6 5 5 W 7 11 29.69 1006 10 16 N/A
9:53 pm 21:53 Clear 75 23.9 4 -15.6 6 6 NNW 7 11 29.70 1006 10 16 N/A
10:53 pm 22:53 Clear 75 23.9 4 -15.6 6 6 NW 9 15 29.70 1006 10 16 N/A
11:53 pm 23:53 Clear 76 24.4 4 -15.6 6 6 NW 12 19 29.69 1006 10 16 N/A

Powered by AerisWeather